Theta_e
345 343 340 334 333 335 337 339 337 334 334 332 331 330 330 331 332 333 335 339 343 343 341 341 341 340 334 322 331 336 335 333 331 332 334 336 337 338 335 333 333 332 333
344 342 339 334 335 337 336 335 332 330 329 332 335 338 338 333 330 331 334 343 345 344 343 341 336 332 321 320 325 334 332 332 331 331 335 338 342 342 338 332 333 335 331
343 343 339 334 338 338 337 335 331 330 329 334 339 339 336 338 341 340 343 340 338 342 334 325 322 330 329 326 334 336 331 331 334 333 337 342 341 335 329 330 327 334 335
344 344 340 334 336 339 337 334 333 332 330 339 340 334 336 336 337 336 332 330 324 324 320 319 318 324 327 341 342 343 344 345 345 342 339 334 332 326 324 331 338 337 327
344 341 336 334 335 338 338 336 334 331 338 341 338 338 339 338 332 330 325 321 320 331 329 335 329 332 338 342 343 343 344 346 346 346 343 341 334 326 322 324 332 326 324
343 340 336 337 339 338 336 336 334 332 338 337 338 337 335 339 342 330 322 321 326 339 326 324 333 334 335 343 342 343 342 342 344 344 343 341 340 331 335 325 324 326 329
345 344 338 339 337 337 335 334 331 334 339 339 333 330 332 333 339 335 325 325 324 334 333 330 325 333 335 340 341 343 344 342 342 343 344 339 324 327 335 331 325 330 336
346 346 342 339 334 329 335 332 331 340 341 332 329 330 334 335 335 336 334 329 326 326 332 337 338 329 325 328 342 344 343 343 341 341 344 341 329 324 330 329 330 327 331
346 346 345 340 334 328 329 331 339 341 340 329 330 333 336 344 340 338 335 334 333 331 330 332 335 340 333 331 333 343 343 345 343 342 343 342 333 325 326 324 332 331 329
345 345 345 342 336 332 329 336 340 342 333 330 331 341 346 346 344 341 337 337 336 334 335 334 331 331 335 336 332 336 343 342 346 343 343 345 340 327 324 327 325 323 330
345 345 344 342 337 333 329 336 340 341 338 332 333 346 346 347 345 342 343 344 344 342 345 343 341 333 330 337 337 341 345 343 346 343 347 346 342 339 331 324 325 329 326
345 345 345 344 339 335 330 332 335 337 335 333 339 343 346 348 346 343 342 344 346 346 346 345 344 334 337 335 341 343 339 340 345 346 347 348 345 343 340 334 325 323 327
346 345 344 344 344 342 337 333 331 331 329 328 329 340 343 344 346 344 345 345 345 348 347 338 346 346 347 344 345 344 342 340 345 345 344 346 345 345 342 340 335 327 323
346 347 346 345 344 344 343 343 342 339 334 336 334 335 343 342 345 344 346 345 344 345 344 344 343 344 345 344 345 344 343 343 342 344 344 347 347 345 343 341 340 337 333
346 347 345 344 345 343 348 348 348 347 346 346 346 346 347 347 347 342 343 345 346 346 344 344 343 344 343 346 345 343 345 338 342 342 343 344 346 346 343 342 344 341 339
350 345 346 348 348 346 349 350 350 350 347 346 346 345 347 345 348 348 346 344 344 344 344 345 346 345 344 339 339 343 341 343 338 332 338 344 343 345 345 344 343 344 341
351 349 351 347 352 347 348 352 352 349 348 349 349 347 346 347 349 347 347 348 344 343 343 344 344 347 345 344 343 345 345 343 340 336 335 337 343 343 344 344 343 343 343
350 350 352 350 349 349 348 353 351 349 350 347 347 347 348 349 349 346 347 348 346 345 345 343 345 344 343 343 346 348 346 344 341 343 343 339 335 340 341 342 342 342 344
349 348 351 350 343 349 350 349 349 349 347 346 347 347 348 346 350 348 349 349 349 349 349 346 345 344 343 344 345 343 344 343 338 339 343 345 345 338 336 339 339 339 343
347 348 348 350 349 347 348 341 345 340 346 345 347 347 348 347 348 346 348 350 347 346 344 345 347 344 344 344 344 338 342 344 341 336 341 342 343 343 343 341 341 342 342
347 348 349 352 351 353 351 348 345 343 344 348 349 349 346 344 339 334 333 335 341 344 343 339 340 340 338 341 343 343 341 340 342 342 339 338 340 342 342 345 342 341 344
346 347 350 350 351 351 351 350 350 348 348 348 348 347 346 342 342 338 338 336 340 343 337 336 340 341 340 339 340 340 339 336 334 338 340 339 339 345 342 344 347 344 345
345 347 350 350 349 350 350 351 351 348 348 348 349 349 344 346 345 341 340 348 345 348 349 344 339 337 339 336 340 341 343 341 340 335 335 336 338 341 341 343 343 345 346
346 347 350 350 349 351 353 354 350 347 347 347 351 351 351 351 349 346 339 335 330 334 347 340 334 334 335 335 338 340 340 338 341 342 335 334 335 336 338 338 341 340 345
346 349 352 352 351 350 353 353 345 348 350 352 349 349 352 353 348 344 337 331 322 329 329 330 330 331 334 334 335 335 335 336 336 339 342 339 336 335 337 339 338 339 341
348 350 352 353 350 349 351 351 347 350 350 352 350 352 349 346 339 335 324 319 322 327 327 325 325 326 331 334 334 335 335 336 337 336 337 336 337 336 337 337 335 338 338
Wind_Speed
21 24 23 25 26 26 28 28 27 27 26 24 22 21 20 19 18 17 15 13 12 12 11 11 10 9 8 10 12 12 12 11 11 10 12 13 15 14 12 11 10 11 11
24 25 23 25 26 27 28 29 28 26 24 23 21 19 18 17 16 14 14 13 13 14 12 11 9 10 11 12 15 14 14 13 13 12 11 12 12 11 10 9 9 11 10
25 25 24 24 26 26 27 25 25 23 21 20 20 19 17 16 15 15 13 12 11 11 9 9 11 13 14 15 16 16 17 17 16 12 9 9 10 9 8 7 9 10 11
23 24 23 23 24 24 25 24 21 19 17 18 18 17 16 15 15 12 10 10 10 10 11 12 14 15 16 18 19 17 14 11 12 13 10 6 4 5 7 9 11 11 9
23 24 24 22 22 22 22 21 20 17 15 18 18 17 15 13 12 12 11 10 11 12 13 13 15 14 18 17 15 14 11 7 5 7 6 6 3 2 6 8 9 9 9
22 22 22 21 21 22 21 19 18 15 15 16 17 17 15 13 13 12 11 11 12 11 11 12 12 13 17 15 13 11 9 6 7 6 2 3 3 2 3 6 9 9 10
21 20 22 20 20 20 19 18 16 15 15 16 16 15 14 13 13 13 12 11 10 10 11 11 11 12 14 13 11 10 7 4 7 5 2 4 3 1 4 4 7 9 9
20 20 22 22 20 18 19 18 15 14 15 16 16 15 15 14 14 12 12 11 9 8 8 9 10 9 10 12 12 8 5 2 2 3 2 3 3 2 3 5 5 7 8
18 20 20 21 20 18 18 16 14 15 15 14 14 13 13 14 13 14 13 12 10 7 5 4 4 6 6 7 9 10 6 4 4 5 4 5 6 2 3 4 5 7 7
17 18 19 22 21 17 17 15 13 15 14 13 11 11 10 11 14 15 13 12 11 9 8 6 2 1 2 3 4 7 7 5 5 5 8 8 6 4 4 5 6 7 8
16 16 18 20 21 18 16 15 14 13 12 11 9 9 8 6 8 7 9 8 7 7 5 6 4 2 2 5 4 5 5 5 8 7 10 10 9 6 5 6 7 8 8
17 17 17 18 19 18 16 14 14 13 12 11 9 6 5 3 3 4 4 5 5 4 3 4 4 3 2 6 2 5 7 6 7 11 16 14 13 8 6 7 8 9 10
15 16 18 18 17 16 15 13 12 11 11 9 6 5 0 2 1 3 6 7 9 10 8 13 4 1 1 4 8 7 9 12 11 11 13 14 14 9 9 8 9 9 10
17 15 17 17 15 14 13 10 9 7 8 5 4 3 3 4 5 7 6 7 10 13 12 11 11 9 9 9 10 13 16 18 18 14 13 14 15 14 13 11 11 10 10
16 18 17 19 20 18 17 13 10 8 7 6 2 0 3 4 5 7 9 8 9 13 10 13 11 13 15 17 16 15 15 17 21 22 19 13 21 18 16 15 14 14 13
17 18 17 18 18 17 15 10 8 8 3 3 2 4 5 7 8 8 10 12 13 13 13 15 16 15 17 14 17 18 15 14 14 17 22 21 16 19 20 18 18 18 17
19 18 16 13 18 17 15 10 10 8 8 5 4 7 10 12 11 12 10 11 12 16 17 16 15 20 20 17 18 16 15 15 12 15 17 25 24 20 21 21 21 21 19
19 19 15 13 18 17 16 15 14 13 11 9 8 8 6 7 9 12 13 15 14 12 16 18 18 17 18 20 21 20 20 20 22 21 17 20 24 26 25 26 25 24 23
19 17 16 12 16 17 17 21 20 20 17 16 13 13 12 10 8 12 14 17 19 18 17 18 21 20 21 21 22 23 24 25 27 21 24 21 19 24 29 30 29 29 27
21 18 16 15 15 15 14 20 21 17 23 19 17 18 18 15 14 15 17 17 17 17 17 18 22 21 21 22 26 26 28 28 25 20 28 25 24 26 27 32 31 30 29
24 22 19 19 17 16 14 16 15 13 14 13 11 10 8 6 5 6 5 7 11 15 16 17 18 18 19 19 19 25 23 24 28 29 28 23 25 26 32 31 31 32 32
27 24 22 21 19 19 16 12 10 13 13 11 9 8 7 6 6 9 10 11 13 16 18 16 15 16 17 17 18 19 20 26 25 20 23 24 22 23 26 31 32 31 33
29 27 24 24 23 21 18 15 16 16 15 14 10 8 5 7 8 11 14 16 16 17 19 20 17 17 18 19 17 16 13 11 27 30 27 30 28 29 32 33 29 29 30
32 29 26 25 25 22 20 20 20 20 15 11 9 8 10 8 11 15 17 16 22 19 19 18 19 20 20 21 21 20 21 23 26 29 34 33 32 27 23 25 26 27 25
35 32 27 25 25 23 22 21 21 19 16 13 14 13 15 14 15 17 19 22 19 20 22 21 20 18 17 18 18 20 21 23 23 26 30 35 35 33 33 33 30 29 28
37 34 30 26 25 24 24 23 26 23 20 19 19 15 13 14 15 17 21 20 19 19 20 20 20 18 15 14 14 15 17 20 22 25 30 35 36 39 36 35 34 32 27
Wind_Direction
130 123 125 124 121 122 122 120 116 113 113 112 112 114 115 116 115 115 114 115 120 125 129 127 121 117 112 116 123 122 120 117 116 126 127 126 122 119 115 114 124 122 123
134 130 129 126 124 123 124 124 121 117 111 109 107 106 107 112 118 120 115 111 111 119 122 122 118 121 122 125 127 125 123 119 123 125 130 134 122 122 122 107 129 127 129
138 134 133 133 130 130 130 129 123 113 104 100 101 101 99 103 108 112 112 109 112 124 123 124 122 122 125 124 120 121 126 121 118 118 111 135 129 122 127 124 139 132 125
142 139 137 137 132 130 133 132 125 113 99 99 101 100 102 102 105 108 111 111 114 118 117 114 118 124 126 124 119 118 119 121 121 116 99 119 133 150 152 143 142 136 128
142 140 138 137 135 132 133 132 123 116 105 106 102 96 95 95 96 99 98 103 112 113 111 111 120 124 131 126 119 114 114 117 124 135 94 81 68 139 148 154 152 147 137
143 144 142 137 136 135 132 132 129 121 110 107 104 96 90 92 93 82 92 101 114 107 103 103 116 130 140 132 124 114 98 101 124 149 59 63 1 269 169 153 154 150 142
145 144 142 142 138 135 135 134 134 119 110 107 101 91 86 87 84 76 82 95 112 111 101 97 102 125 147 149 144 136 131 134 146 134 117 8 352 260 215 179 167 163 157
148 150 149 150 140 136 140 139 132 121 119 109 100 90 84 84 81 75 74 81 96 104 103 98 100 110 133 161 164 171 144 140 184 189 162 318 356 325 260 217 190 184 175
155 155 153 157 146 143 141 139 135 133 125 116 106 92 88 79 84 71 67 65 63 67 71 76 89 106 124 156 188 171 175 192 216 228 246 268 318 300 293 253 217 203 196
159 159 158 161 158 153 152 147 140 138 132 124 117 100 85 81 76 70 59 55 52 48 48 36 30 96 122 156 175 193 203 217 244 251 255 263 286 317 297 276 247 230 219
162 165 163 164 165 162 160 155 149 147 140 133 125 103 80 75 62 65 54 44 44 46 64 43 19 321 201 177 170 174 211 261 235 260 302 258 271 301 312 297 265 246 236
157 167 169 169 172 171 170 168 163 157 149 147 146 115 96 92 37 22 50 15 343 348 2 11 40 105 156 183 214 259 248 245 250 293 295 254 251 284 298 297 281 257 244
153 162 172 174 173 177 179 183 190 184 175 171 182 198 283 48 287 18 354 339 333 316 310 339 289 309 250 238 258 275 256 253 265 283 302 249 243 272 295 284 287 275 258
170 160 167 172 170 170 170 161 180 171 191 185 180 183 335 320 290 316 327 320 308 311 316 329 322 299 291 280 276 295 289 267 267 273 293 253 262 269 271 279 279 277 271
166 167 166 161 151 150 150 142 144 147 117 129 135 316 5 345 347 305 284 282 289 305 307 302 309 321 313 298 294 297 296 275 268 265 265 273 266 270 273 272 274 272 272
163 165 169 162 162 162 166 168 193 197 171 186 265 267 297 295 293 332 340 288 281 288 296 309 297 295 314 305 294 306 292 289 284 277 258 259 271 270 276 273 269 271 268
180 176 178 180 185 182 181 184 190 202 201 227 256 265 275 280 274 305 321 326 311 281 278 288 292 290 292 297 298 302 294 283 283 266 257 254 257 264 265 271 277 275 270
187 188 191 200 194 198 197 192 211 192 197 216 246 254 280 277 273 288 301 328 315 310 277 287 296 294 283 285 284 286 292 289 286 272 270 256 252 255 261 268 271 272 272
198 200 203 209 207 206 213 214 219 217 213 214 227 246 261 277 281 281 300 313 321 323 312 293 290 292 291 290 294 293 285 282 308 259 265 265 265 263 260 261 268 268 265
210 212 214 212 206 201 220 220 224 227 221 233 238 249 255 268 282 294 293 298 310 314 312 304 290 293 293 291 280 287 283 285 276 266 270 272 272 269 266 262 261 263 262
205 210 214 212 207 209 208 203 206 197 195 199 206 220 240 239 259 289 315 309 311 306 312 321 308 305 299 304 293 294 293 286 289 282 278 283 289 278 273 268 261 261 260
207 214 215 220 214 217 220 212 199 189 198 207 226 236 225 237 279 301 309 310 300 302 310 316 317 312 312 311 306 310 309 302 302 307 280 279 278 286 274 270 265 261 266
212 216 218 220 217 221 225 222 208 206 213 218 220 225 237 260 291 301 304 300 303 297 299 306 305 305 305 306 305 302 300 288 302 299 295 294 289 278 284 272 279 262 259
216 217 221 220 220 222 222 219 212 209 219 215 213 238 234 249 272 287 297 297 309 300 292 299 302 304 302 302 301 301 297 299 300 303 297 295 293 294 296 292 254 275 270
215 214 217 218 221 218 215 217 209 203 203 211 229 243 235 242 261 276 290 300 304 293 295 303 306 304 301 296 295 298 302 302 299 299 299 303 298 295 290 287 280 279 267
216 216 214 214 216 218 216 214 213 215 212 227 236 239 235 249 267 285 303 310 311 308 306 305 303 303 305 304 300 295 294 298 301 302 301 300 297 296 297 291 287 285 282